Time,TemperatureF,DewpointF,PressureIn,WindDirection,WindDirectionDegrees,WindSpeedMPH,WindSpeedGustMPH,Humidity,HourlyPrecipIn,Conditions,Clouds,dailyrainin,SoftwareType,DateUTC
2013-04-28 00:11:00,37.5,37.0,30.33,SSW,208,0.0,0.0,96,0.00,,,0.00,weatherlink.com 1.10,2013-04-28 04:11:00,
2013-04-28 00:26:00,37.3,36.0,30.33,SSW,208,0.0,0.0,96,0.00,,,0.00,weatherlink.com 1.10,2013-04-28 04:26:00,
2013-04-28 00:41:00,37.0,36.0,30.33,SSW,208,0.0,0.0,96,0.00,,,0.00,weatherlink.com 1.10,2013-04-28 04:41:00,
2013-04-28 00:56:00,36.7,36.0,30.33,SSW,208,0.0,1.0,96,0.00,,,0.00,weatherlink.com 1.10,2013-04-28 04:56:00,
2013-04-28 01:11:00,36.6,36.0,30.32,SSW,208,0.0,0.0,96,0.00,,,0.00,weatherlink.com 1.10,2013-04-28 05:11:00,
2013-04-28 01:26:00,36.5,36.0,30.32,SSW,208,0.0,0.0,96,0.00,,,0.00,weatherlink.com 1.10,2013-04-28 05:26:00,
2013-04-28 01:41:00,36.4,35.0,30.32,SSW,208,0.0,0.0,96,0.00,,,0.00,weatherlink.com 1.10,2013-04-28 05:41:00,
2013-04-28 01:56:00,36.1,35.0,30.32,SSW,208,0.0,1.0,96,0.00,,,0.00,weatherlink.com 1.10,2013-04-28 05:56:00,
2013-04-28 02:11:00,35.8,35.0,30.31,SSW,208,0.0,1.0,96,0.00,,,0.00,weatherlink.com 1.10,2013-04-28 06:11:00,
2013-04-28 02:26:00,35.5,35.0,30.31,SSW,207,0.0,1.0,96,0.00,,,0.00,weatherlink.com 1.10,2013-04-28 06:26:00,
2013-04-28 02:41:00,35.3,34.0,30.31,SSW,208,0.0,1.0,96,0.00,,,0.00,weatherlink.com 1.10,2013-04-28 06:41:00,
2013-04-28 02:56:00,35.2,35.0,30.30,SSW,207,0.0,0.0,97,0.00,,,0.00,weatherlink.com 1.10,2013-04-28 06:56:00,
2013-04-28 03:11:00,35.3,35.0,30.30,SSW,208,0.0,1.0,97,0.00,,,0.00,weatherlink.com 1.10,2013-04-28 07:11:00,
2013-04-28 03:26:00,35.0,34.0,30.30,SSW,207,0.0,1.0,96,0.00,,,0.00,weatherlink.com 1.10,2013-04-28 07:26:00,
2013-04-28 03:41:00,34.9,34.0,30.30,SSW,208,0.0,0.0,97,0.00,,,0.00,weatherlink.com 1.10,2013-04-28 07:41:00,
2013-04-28 03:56:00,34.7,34.0,30.30,SSW,208,0.0,1.0,97,0.00,,,0.00,weatherlink.com 1.10,2013-04-28 07:56:00,
2013-04-28 04:11:00,34.7,34.0,30.30,SSW,208,0.0,0.0,97,0.00,,,0.00,weatherlink.com 1.10,2013-04-28 08:11:00,
2013-04-28 04:26:00,34.6,34.0,30.30,SSW,208,0.0,0.0,97,0.00,,,0.00,weatherlink.com 1.10,2013-04-28 08:26:00,
2013-04-28 04:41:00,34.6,34.0,30.30,SSW,208,0.0,0.0,97,0.00,,,0.00,weatherlink.com 1.10,2013-04-28 08:41:00,
2013-04-28 04:56:00,34.6,34.0,30.30,SSW,208,0.0,1.0,97,0.00,,,0.00,weatherlink.com 1.10,2013-04-28 08:56:00,
2013-04-28 05:11:00,34.5,34.0,30.30,SSW,207,0.0,0.0,97,0.00,,,0.00,weatherlink.com 1.10,2013-04-28 09:11:00,
2013-04-28 05:26:00,34.5,34.0,30.30,SSW,208,0.0,0.0,97,0.00,,,0.00,weatherlink.com 1.10,2013-04-28 09:26:00,
2013-04-28 05:41:00,34.4,34.0,30.30,SSW,208,0.0,0.0,97,0.00,,,0.00,weatherlink.com 1.10,2013-04-28 09:41:00,
2013-04-28 05:56:00,34.3,34.0,30.30,SSW,208,0.0,0.0,97,0.00,,,0.00,weatherlink.com 1.10,2013-04-28 09:56:00,
2013-04-28 06:11:00,35.2,35.0,30.31,SSW,208,0.0,1.0,97,0.00,,,0.00,weatherlink.com 1.10,2013-04-28 10:11:00,
2013-04-28 06:26:00,36.4,36.0,30.31,SSW,208,0.0,1.0,97,0.00,,,0.00,weatherlink.com 1.10,2013-04-28 10:26:00,
2013-04-28 06:41:00,37.5,37.0,30.31,SSW,208,0.0,1.0,97,0.00,,,0.00,weatherlink.com 1.10,2013-04-28 10:41:00,
2013-04-28 06:56:00,38.6,38.0,30.32,SSW,210,0.0,1.0,96,0.00,,,0.00,weatherlink.com 1.10,2013-04-28 10:56:00,
2013-04-28 07:11:00,40.6,40.0,30.32,SW,214,0.0,1.0,96,0.00,,,0.00,weatherlink.com 1.10,2013-04-28 11:11:00,
2013-04-28 07:26:00,42.2,41.0,30.32,SW,214,0.0,1.0,96,0.00,,,0.00,weatherlink.com 1.10,2013-04-28 11:26:00,
2013-04-28 07:42:00,44.4,43.0,30.32,South,179,0.0,1.0,93,0.00,,,0.00,weatherlink.com 1.10,2013-04-28 11:42:00,
2013-04-28 07:57:00,45.3,43.0,30.32,SSE,160,0.0,2.0,91,0.00,,,0.00,weatherlink.com 1.10,2013-04-28 11:57:00,
2013-04-28 08:12:00,47.7,44.0,30.33,SSE,160,0.0,1.0,87,0.00,,,0.00,weatherlink.com 1.10,2013-04-28 12:12:00,
2013-04-28 08:27:00,48.6,44.0,30.32,SSE,148,2.0,2.0,85,0.00,,,0.00,weatherlink.com 1.10,2013-04-28 12:27:00,
2013-04-28 08:42:00,48.5,43.0,30.32,SE,139,3.0,3.0,80,0.00,,,0.00,weatherlink.com 1.10,2013-04-28 12:42:00,
2013-04-28 08:57:00,49.4,44.0,30.33,SE,134,5.0,5.0,80,0.00,,,0.00,weatherlink.com 1.10,2013-04-28 12:57:00,
2013-04-28 09:12:00,50.4,44.0,30.32,SE,144,4.0,5.0,78,0.00,,,0.00,weatherlink.com 1.10,2013-04-28 13:12:00,
2013-04-28 09:27:00,50.5,44.0,30.33,SE,134,6.0,7.0,79,0.00,,,0.00,weatherlink.com 1.10,2013-04-28 13:27:00,
2013-04-28 09:42:00,49.6,44.0,30.33,SE,143,7.0,10.0,81,0.00,,,0.00,weatherlink.com 1.10,2013-04-28 13:42:00,
2013-04-28 09:57:00,49.7,44.0,30.33,SE,146,7.0,10.0,80,0.00,,,0.00,weatherlink.com 1.10,2013-04-28 13:57:00,
2013-04-28 10:12:00,50.4,44.0,30.33,SE,139,7.0,10.0,80,0.00,,,0.00,weatherlink.com 1.10,2013-04-28 14:12:00,
2013-04-28 10:27:00,50.4,44.0,30.33,SE,125,8.0,11.0,79,0.00,,,0.00,weatherlink.com 1.10,2013-04-28 14:27:00,
2013-04-28 10:42:00,50.7,45.0,30.34,SSE,148,8.0,12.0,80,0.00,,,0.00,weatherlink.com 1.10,2013-04-28 14:42:00,
2013-04-28 10:57:00,50.1,44.0,30.33,SE,141,8.0,11.0,79,0.00,,,0.00,weatherlink.com 1.10,2013-04-28 14:57:00,
2013-04-28 11:12:00,49.8,44.0,30.33,SE,131,9.0,11.0,79,0.00,,,0.00,weatherlink.com 1.10,2013-04-28 15:12:00,
2013-04-28 11:27:00,50.0,44.0,30.33,SE,146,10.0,11.0,81,0.00,,,0.00,weatherlink.com 1.10,2013-04-28 15:27:00,
2013-04-28 11:42:00,50.2,44.0,30.33,SE,132,9.0,11.0,80,0.00,,,0.00,weatherlink.com 1.10,2013-04-28 15:42:00,
2013-04-28 11:57:00,50.5,44.0,30.33,SE,134,8.0,11.0,79,0.00,,,0.00,weatherlink.com 1.10,2013-04-28 15:57:00,
2013-04-28 12:12:00,50.5,44.0,30.32,SE,146,9.0,13.0,79,0.00,,,0.00,weatherlink.com 1.10,2013-04-28 16:12:00,
2013-04-28 12:27:00,51.5,43.0,30.32,SE,138,10.0,11.0,74,0.00,,,0.00,weatherlink.com 1.10,2013-04-28 16:27:00,
2013-04-28 12:42:00,55.1,40.0,30.31,SSE,148,5.0,12.0,58,0.00,,,0.00,weatherlink.com 1.10,2013-04-28 16:42:00,
2013-04-28 12:57:00,55.5,40.0,30.31,SE,128,10.0,12.0,56,0.00,,,0.00,weatherlink.com 1.10,2013-04-28 16:57:00,
2013-04-28 13:12:00,54.0,42.0,30.31,ESE,118,13.0,15.0,63,0.00,,,0.00,weatherlink.com 1.10,2013-04-28 17:12:00,
2013-04-28 13:27:00,50.3,43.0,30.31,SE,132,12.0,16.0,75,0.00,,,0.00,weatherlink.com 1.10,2013-04-28 17:27:00,
2013-04-28 13:42:00,49.4,43.0,30.31,SE,125,12.0,16.0,79,0.00,,,0.00,weatherlink.com 1.10,2013-04-28 17:42:00,
2013-04-28 13:57:00,49.3,43.0,30.31,SE,141,11.0,16.0,79,0.00,,,0.00,weatherlink.com 1.10,2013-04-28 17:57:00,
2013-04-28 14:12:00,49.2,44.0,30.31,SE,134,11.0,15.0,81,0.00,,,0.00,weatherlink.com 1.10,2013-04-28 18:12:00,
2013-04-28 14:27:00,49.1,44.0,30.30,ESE,123,12.0,15.0,82,0.00,,,0.00,weatherlink.com 1.10,2013-04-28 18:27:00,
2013-04-28 14:42:00,49.2,43.0,30.30,SE,124,11.0,15.0,80,0.00,,,0.00,weatherlink.com 1.10,2013-04-28 18:42:00,
2013-04-28 14:57:00,49.5,44.0,30.30,SE,137,11.0,15.0,80,0.00,,,0.00,weatherlink.com 1.10,2013-04-28 18:57:00,
2013-04-28 15:12:00,49.5,44.0,30.29,SE,131,11.0,14.0,81,0.00,,,0.00,weatherlink.com 1.10,2013-04-28 19:12:00,
2013-04-28 15:27:00,50.3,42.0,30.29,ESE,118,12.0,15.0,74,0.00,,,0.00,weatherlink.com 1.10,2013-04-28 19:27:00,
2013-04-28 15:43:00,50.6,43.0,30.28,SE,146,9.0,15.0,75,0.00,,,0.00,weatherlink.com 1.10,2013-04-28 19:43:00,
2013-04-28 15:58:00,50.2,43.0,30.27,SE,130,11.0,14.0,76,0.00,,,0.00,weatherlink.com 1.10,2013-04-28 19:58:00,
2013-04-28 16:13:00,49.9,43.0,30.27,SE,132,10.0,14.0,78,0.00,,,0.00,weatherlink.com 1.10,2013-04-28 20:13:00,
2013-04-28 16:28:00,49.7,43.0,30.26,ESE,120,11.0,14.0,79,0.00,,,0.00,weatherlink.com 1.10,2013-04-28 20:28:00,
2013-04-28 16:43:00,49.9,44.0,30.26,SE,146,9.0,13.0,79,0.00,,,0.00,weatherlink.com 1.10,2013-04-28 20:43:00,
2013-04-28 16:58:00,50.0,43.0,30.25,SE,125,11.0,14.0,78,0.00,,,0.00,weatherlink.com 1.10,2013-04-28 20:58:00,
2013-04-28 17:13:00,50.0,44.0,30.25,SE,131,9.0,12.0,79,0.00,,,0.00,weatherlink.com 1.10,2013-04-28 21:13:00,
2013-04-28 17:28:00,50.2,43.0,30.26,ESE,120,10.0,13.0,77,0.00,,,0.00,weatherlink.com 1.10,2013-04-28 21:28:00,
2013-04-28 17:43:00,50.1,43.0,30.25,SE,129,9.0,11.0,77,0.00,,,0.00,weatherlink.com 1.10,2013-04-28 21:43:00,
2013-04-28 17:58:00,50.3,43.0,30.25,SE,139,6.0,9.0,76,0.00,,,0.00,weatherlink.com 1.10,2013-04-28 21:58:00,
2013-04-28 18:13:00,50.3,43.0,30.25,SE,138,9.0,10.0,76,0.00,,,0.00,weatherlink.com 1.10,2013-04-28 22:13:00,
2013-04-28 18:28:00,50.6,43.0,30.25,SE,138,7.0,8.0,76,0.00,,,0.00,weatherlink.com 1.10,2013-04-28 22:28:00,
2013-04-28 18:43:00,50.0,43.0,30.25,SE,142,7.0,9.0,78,0.00,,,0.00,weatherlink.com 1.10,2013-04-28 22:43:00,
2013-04-28 18:58:00,49.4,44.0,30.26,SE,139,4.0,8.0,80,0.00,,,0.00,weatherlink.com 1.10,2013-04-28 22:58:00,
2013-04-28 19:13:00,49.2,43.0,30.25,SE,130,7.0,9.0,79,0.00,,,0.00,weatherlink.com 1.10,2013-04-28 23:13:00,
2013-04-28 19:28:00,49.5,43.0,30.26,SE,127,5.0,9.0,77,0.00,,,0.00,weatherlink.com 1.10,2013-04-28 23:28:00,
2013-04-28 19:43:00,49.0,43.0,30.26,South,172,0.0,6.0,79,0.00,,,0.00,weatherlink.com 1.10,2013-04-28 23:43:00,
2013-04-28 19:58:00,48.1,43.0,30.25,SSE,151,0.0,2.0,81,0.00,,,0.00,weatherlink.com 1.10,2013-04-28 23:58:00,
2013-04-28 20:13:00,47.8,42.0,30.26,SSE,149,0.0,2.0,79,0.00,,,0.00,weatherlink.com 1.10,2013-04-29 00:13:00,
2013-04-28 20:28:00,46.6,41.0,30.26,South,176,0.0,1.0,81,0.00,,,0.00,weatherlink.com 1.10,2013-04-29 00:28:00,
2013-04-28 20:43:00,45.4,41.0,30.26,South,186,0.0,0.0,83,0.00,,,0.00,weatherlink.com 1.10,2013-04-29 00:43:00,
2013-04-28 20:58:00,44.7,40.0,30.27,South,187,0.0,0.0,84,0.00,,,0.00,weatherlink.com 1.10,2013-04-29 00:58:00,
2013-04-28 21:13:00,44.1,40.0,30.27,South,187,0.0,0.0,85,0.00,,,0.00,weatherlink.com 1.10,2013-04-29 01:13:00,
2013-04-28 21:28:00,42.9,39.0,30.26,SSW,195,0.0,1.0,87,0.00,,,0.00,weatherlink.com 1.10,2013-04-29 01:28:00,
2013-04-28 21:43:00,42.2,39.0,30.26,SSW,197,0.0,1.0,89,0.00,,,0.00,weatherlink.com 1.10,2013-04-29 01:43:00,
2013-04-28 21:58:00,41.7,39.0,30.26,SSW,197,0.0,0.0,89,0.00,,,0.00,weatherlink.com 1.10,2013-04-29 01:58:00,
2013-04-28 22:13:00,41.4,39.0,30.26,SSW,198,0.0,1.0,90,0.00,,,0.00,weatherlink.com 1.10,2013-04-29 02:13:00,
2013-04-28 22:28:00,40.9,39.0,30.26,SSW,198,0.0,1.0,91,0.00,,,0.00,weatherlink.com 1.10,2013-04-29 02:28:00,
2013-04-28 22:43:00,40.4,38.0,30.26,SSW,198,0.0,0.0,92,0.00,,,0.00,weatherlink.com 1.10,2013-04-29 02:43:00,
2013-04-28 22:58:00,40.1,38.0,30.26,SSW,199,0.0,1.0,92,0.00,,,0.00,weatherlink.com 1.10,2013-04-29 02:58:00,
2013-04-28 23:13:00,39.6,38.0,30.26,SSW,198,0.0,1.0,93,0.00,,,0.00,weatherlink.com 1.10,2013-04-29 03:13:00,
2013-04-28 23:28:00,39.3,38.0,30.26,SSW,200,0.0,1.0,93,0.00,,,0.00,weatherlink.com 1.10,2013-04-29 03:28:00,
2013-04-28 23:43:00,39.0,37.0,30.27,SSW,200,0.0,0.0,93,0.00,,,0.00,weatherlink.com 1.10,2013-04-29 03:43:00,
2013-04-28 23:58:00,38.7,37.0,30.27,SSW,200,0.0,1.0,94,0.00,,,0.00,weatherlink.com 1.10,2013-04-29 03:58:00,